Content
SEND FEEDBACK

Daily
Averages
Monthly
Summary
United States of America

EASTON, WASHINGTON


Home > North America > United States > Washington
Elevation: 69 meters     Latitude: 47 16N     Longitude: 121 12W

WEATHER
 
SELECT A DAY
Number of Records: 292,849;   Date Range: 1/1/95 - 7/24/14
 
SHARE

PRINT THIS DATA

[ ← Previous Day ]
WEATHER ALMANAC - 13 FEBRUARY, 2013
[ Next Day → ]
[ °F ]   °C
Weather ElementAverageHighLow
Temperature-0.9 °C1 °C (1:19 am)-2 °C (10:07 am)
Dewpoint-1.9 °C0 °C (1:19 am)-3 °C (10:07 am)
Humidity92.9 %100 % (10:29 am)87 % (7:22 am)
Barometer1025.7 hPa1028.1 hPa (1:56 pm)1022.7 hPa (2:19 am)
Wind Speed17.7 km/h29.6 km/h (8:43 am)
Wind Gust48.1 km/h (7:22 am)
Weather ElementAverage
Visibility3.9 km
Wind DirectionWSW (254.5 °)

Weather ElementTotal
Precipitation3.05 mm
Heating Degree Days18.8 (Base 18.3)
Averaged from 22 records on 13 February, 2013
WEATHER CONDITIONS BREAKOUT
WIND DIRECTION BREAKOUT
WEATHER BY HOUR - 13 FEBRUARY, 2013
[ °F ]   °C
Local TimeTemperatureDewpointHumidityBarometerVisibilityWind DirectionWind SpeedGust SpeedPrecipitationEventsConditions
1:19 AM1 °C0 °C93 %1023 hPa1.3 kmWest (270°)22.2 km/h42.6 km/h0.76 mmRainLight Rain
2:19 AM1 °C0 °C93 %1022.7 hPa0.8 kmWSW (250°)16.7 km/h33.3 km/h0.76 mmFogFog
6:56 AM0 °C-1.7 °C88 %1026.1 hPa16.1 kmWest (270°)24.1 km/h44.4 km/h0.25 mmOvercast
7:22 AM0 °C-2 °C87 %1024 hPa16.1 kmWest (270°)20.4 km/h48.1 km/hOvercast
8:38 AM-1 °C-2 °C93 %1024.7 hPa3.2 kmWest (270°)22.2 km/h46.3 km/hOvercast
8:43 AM-1 °C-2 °C93 %1024.7 hPa2.9 kmWest (280°)29.6 km/h48.1 km/hOvercast
8:56 AM-1.1 °C-2.2 °C92 %1027.4 hPa0.8 kmWest (270°)18.5 km/h38.9 km/h0 mmFog-SnowLight Snow
10:07 AM-2 °C-3 °C93 %1025.4 hPa2.4 kmWest (280°)24.1 km/h42.6 km/hOvercast
10:09 AM-2 °C-3 °C93 %1025.4 hPa6.4 kmWest (270°)22.2 km/h44.4 km/hOvercast
10:29 AM-2 °C-2 °C100 %1025.4 hPa16.1 kmWest (260°)18.5 km/h44.4 km/hOvercast
1:39 PM-1 °C-2 °C93 %1025.4 hPa1.9 kmWest (270°)16.7 km/h37 km/h0 mmSnowLight Snow
1:44 PM-1 °C-2 °C93 %1025.4 hPa1.3 kmWest (270°)13 km/h31.5 km/h0 mmSnowLight Snow
1:53 PM-1 °C-2 °C93 %1025.4 hPa0.8 kmWest (270°)14.8 km/h29.6 km/h0 mmFog-SnowLight Snow
1:56 PM-1.1 °C-1.7 °C96 %1028.1 hPa0.8 kmWest (270°)14.8 km/h29.6 km/h0 mmFog-SnowLight Snow
2:23 PM-1 °C-2 °C93 %1025.7 hPa0.3 kmWest (260°)16.7 km/h35.2 km/h0 mmFog-SnowLight Snow
3:14 PM-1 °C-2 °C93 %1026.1 hPa0.3 kmWest (270°)14.8 km/h29.6 km/h0.25 mmFog-SnowLight Snow
5:34 PM-1 °C-2 °C93 %1026.4 hPa1.6 kmWest (260°)13 km/h0.25 mmSnowLight Snow
5:38 PM-1 °C-2 °C93 %1026.4 hPa2.4 kmWest (260°)14.8 km/h0.25 mmSnowLight Snow
5:43 PM-1 °C-2 °C93 %1026.1 hPa4.8 kmWSW (250°)13 km/h0.25 mmOvercast
6:03 PM-1 °C-2 °C93 %1026.4 hPa1.3 kmWest (260°)13 km/h0 mmSnowLight Snow
6:21 PM-1 °C-2 °C93 %1026.4 hPa0.3 kmWest (270°)13 km/h0.25 mmFog-SnowLight Snow
7:41 PM-1 °C-2 °C93 %1027.1 hPa1.6 kmVariable11.1 km/h0 mmOvercast
Hourly data recorded from KSMP, located 0 kilometers away from Easton, Washington







STORIES FROM OUR PARTNERS